Tracking 31027 objects as of 18-Jul-2025
HD Live streaming from Space Station
objects crossing your sky now

ONEWEB-0316

Track ONEWEB-0316 now!
10-day predictions
ONEWEB-0316 is classified as:


NORAD ID: 49102
Int'l Code: 2021-075AD
Perigee: 1,195.6 km
Apogee: 1,198.2 km
Inclination: 87.9 °
Period: 109.2 minutes
Semi major axis: 7567 km
RCS: Unknown
Launch date: August 21, 2021
Source: United Kingdom (UK)
Launch site: TYURATAM MISSILE AND SPACE COMPLEX (TTMTR)
Your satellite tracking list
Your tracking list is empty




NASA's NSSDC Master Catalog

Two Line Element Set (TLE):
1 49102U 21075AD  25199.45401797  .00000051  00000-0  95828-4 0  9996
2 49102  87.9124  41.7705 0001686  93.0420 267.0905 13.18685165193222
Source of the keplerian elements: AFSPC